Miscellaneous Local Product
Issued by NWS Hastings, NE

Home | Current Version | Previous Version | Text Only | Print | Product List | Glossary On
Versions: 1 2 3 4 5 6 7 8 9 10 11 12 13 14 15 16 17 18 19 20 21 22 23 24 25 26 27 28 29 30 31 32 33 34 35 36 37 38 39 40 41 42 43 44 45 46 47 48 49 50
000
AXUS43 KGID 311202
MISGRI

GID CWA HOURLY WEATHER ROUNDUP
NATIONAL WEATHER SERVICE HASTINGS NE
700 AM CDT FRI JUL 31 2015

NOTE: "FAIR" INDICATES FEW OR NO CLOUDS BELOW 12,000 FEET WITH NO
SIGNIFICANT WEATHER AND/OR OBSTRUCTIONS TO VISIBILITY.

...SOUTH CENTRAL NEBRASKA...

CITY           SKY/WX    TMP DP  RH WIND       PRES   REMARKS
GRAND ISLAND   CLEAR     69  66  90 SW7       30.18R
HASTINGS       CLEAR     68  66  93 SW5       30.20R
KEARNEY        PTCLDY    70  64  83 SW8       30.20R
ORD            CLEAR     61  60  97 SW6       30.17R
YORK           CLEAR     66  66 100 SW6       30.17R
AURORA         CLEAR     67  67 100 SW3       30.18R
LEXINGTON      PTCLDY    64  63  95 CALM      30.20S
HOLDREGE       CLEAR     67  64  91 S6        30.20S
HEBRON         CLEAR     65  63  92 CALM      30.18R

...NEBRASKA PANHANDLE...

CITY           SKY/WX    TMP DP  RH WIND       PRES   REMARKS
CHADRON        CLEAR     52  48  86 CALM      30.23R
ALLIANCE       CLEAR     53  51  93 W3        30.26R
SCOTTSBLUFF    CLEAR     59  57  93 S3        30.26S
SIDNEY         CLEAR     55  54  96 S10       30.30R

...WESTERN AND NORTH CENTRAL NEBRASKA...

CITY           SKY/WX    TMP DP  RH WIND       PRES   REMARKS
VALENTINE      CLEAR     57  52  83 SW5       30.19S
AINSWORTH      CLEAR     63  58  83 SW5       30.19R
ONEILL         CLEAR     64  63  96 N3        30.17R
BROKEN BOW     CLEAR     61  59  93 CALM      30.19R
IMPERIAL       CLEAR     58  56  93 SW3       30.25R
NORTH PLATTE   CLEAR     61  59  93 NE3       30.22R
MCCOOK         CLEAR     64  62  93 CALM      30.22R

...EASTERN NEBRASKA...

CITY           SKY/WX    TMP DP  RH WIND       PRES   REMARKS
NORFOLK        CLEAR     66  63  90 CALM      30.14S
SO SIOUX CITY  CLEAR     65  61  87 E5        30.14R
TEKAMAH        CLEAR     66  63  90 SE6       30.13R
COLUMBUS       CLEAR     64  61  88 SE3       30.17R
ALBION         CLEAR     63  60  92 CALM      30.17R FOG
OMAHA EPPLEY   PTCLDY    72  64  76 SW5       30.13S
OFFUTT AFB     LGT RAIN  68  64  88 W8        30.15R
MILLARD        TSTM      72  62  71 SW9G26    30.14F
LINCOLN        CLEAR     68  64  87 S3        30.18S
NEBRASKA CITY  PTCLDY    66  62  86 W9        30.16F
BEATRICE       CLEAR     65  63  91 NE7       30.19R
FALLS CITY     CLEAR     64  62  93 VRB5      30.18R

...NORTHERN KANSAS...

CITY           SKY/WX    TMP DP  RH WIND       PRES   REMARKS
GOODLAND       FOG       57  57 100 N3        30.28S VSB 3/4
HILL CITY      CLEAR     67  65  93 CALM      30.22R
NORTON         SUNNY     64  63  94 SW6       30.21R
PHILLIPSBURG   CLEAR     70  70 100 CALM      30.20S
SMITH CENTER   CLEAR     66  64  94 CALM      30.20S
HAYS           CLOUDY    64  57  77 CALM      30.21S VSB 1
RUSSELL        CLEAR     66  65  96 S5        30.19R FOG
CONCORDIA      CLEAR     68  65  90 W3        30.19R
SALINA         CLEAR     67  65  93 S3        30.19R
TOPEKA         CLEAR     64  62  93 CALM      30.18R



USA.gov is the U.S. government's official web portal to all federal, state and local government web resources and services.